SWR14K EDDN-LFML

Flight info

Callsign SWR14K
Flight time 1h 18m
Altitude 33000
Route BOLSI1C BOLSI Y166 DKB N869 NATOR/N0447F350 DCT LUTIX DCT BENOT DCT NEMOS DCT GEVEA DCT INCUS DCT BALSI BALSI1D
Aircraft A320/M-SDE3FGHIRWY/LB1

Departure

Time 2026-04-29 17:26
Airport Nuremberg Airport (EDDN)

Arrival

Time 2026-04-29 18:45
Airport Marseille Provence Airport (LFML)
Time Latitude Longitude Altitude Speed Heading
2026-04-29 17:08 49.49630 11.07086 1025 ft 0 kts
2026-04-29 17:20 49.49638 11.07089 1025 ft 6 kts 11°
2026-04-29 17:20 49.49667 11.07132 1025 ft 6 kts 82°
2026-04-29 17:20 49.49667 11.07195 1026 ft 6 kts 80°
2026-04-29 17:21 49.49718 11.07224 1026 ft 10 kts 336°
2026-04-29 17:21 49.49746 11.07117 1024 ft 13 kts 278°
2026-04-29 17:21 49.49759 11.06978 1021 ft 14 kts 278°
2026-04-29 17:21 49.49773 11.06823 1019 ft 15 kts 278°
2026-04-29 17:22 49.49790 11.06652 1017 ft 18 kts 278°
2026-04-29 17:22 49.49809 11.06461 1019 ft 19 kts 278°
2026-04-29 17:22 49.49828 11.06267 1019 ft 18 kts 278°
2026-04-29 17:22 49.49846 11.06087 1020 ft 16 kts 278°
2026-04-29 17:23 49.49898 11.05974 1022 ft 12 kts 333°
2026-04-29 17:23 49.49948 11.05944 1020 ft 0 kts 341°
2026-04-29 17:24 49.49949 11.05944 1020 ft 1 kts 341°
2026-04-29 17:24 49.49977 11.05936 1019 ft 8 kts 356°
2026-04-29 17:25 49.50025 11.05966 1018 ft 8 kts 43°
2026-04-29 17:25 49.50041 11.06049 1020 ft 9 kts 91°
2026-04-29 17:25 49.50016 11.06323 1018 ft 58 kts 98°
2026-04-29 17:25 49.49922 11.07282 1027 ft 120 kts 99°
2026-04-29 17:26 49.49768 11.08748 1283 ft 144 kts 96°
2026-04-29 17:26 49.49610 11.10283 1931 ft 147 kts 94°
2026-04-29 17:26 49.49457 11.11849 2519 ft 153 kts 95°
2026-04-29 17:26 49.49290 11.13585 2808 ft 175 kts 95°
2026-04-29 17:27 49.49101 11.15563 3097 ft 198 kts 96°
2026-04-29 17:27 49.48892 11.17752 3489 ft 218 kts 96°
2026-04-29 17:27 49.48654 11.20188 3930 ft 241 kts 97°
2026-04-29 17:27 49.48337 11.22765 4751 ft 249 kts 108°
2026-04-29 17:28 49.47295 11.24904 5613 ft 260 kts 142°
2026-04-29 17:28 49.45549 11.25830 6389 ft 277 kts 171°
2026-04-29 17:28 49.43592 11.25761 7176 ft 285 kts 184°
2026-04-29 17:28 49.41611 11.25304 8019 ft 289 kts 188°
2026-04-29 17:29 49.39618 11.24772 8865 ft 293 kts 187°
2026-04-29 17:29 49.37580 11.24284 9624 ft 300 kts 186°
2026-04-29 17:29 49.35529 11.23882 10418 ft 303 kts 186°
2026-04-29 17:29 49.34125 11.23436 10867 ft 308 kts 198°
2026-04-29 17:30 49.31685 11.21209 11807 ft 312 kts 226°
2026-04-29 17:30 49.30363 11.18486 12089 ft 330 kts 248°
2026-04-29 17:30 49.29663 11.15037 12256 ft 350 kts 258°
2026-04-29 17:30 49.29074 11.11355 12767 ft 360 kts 259°
2026-04-29 17:31 49.28472 11.07605 13467 ft 364 kts 259°
2026-04-29 17:31 49.27856 11.03823 14186 ft 367 kts 258°
2026-04-29 17:31 49.27230 11.00012 14821 ft 370 kts 258°
2026-04-29 17:31 49.26592 10.96169 15405 ft 375 kts 258°
2026-04-29 17:32 49.25944 10.92291 16021 ft 378 kts 259°
2026-04-29 17:32 49.25286 10.88366 16606 ft 383 kts 259°
2026-04-29 17:32 49.24626 10.84444 17191 ft 387 kts 259°
2026-04-29 17:32 49.23951 10.80442 17764 ft 391 kts 259°
2026-04-29 17:33 49.23268 10.76396 18371 ft 394 kts 258°
2026-04-29 17:33 49.22578 10.72317 18913 ft 397 kts 259°
2026-04-29 17:33 49.21885 10.68202 19416 ft 401 kts 259°
2026-04-29 17:33 49.21186 10.64048 19948 ft 405 kts 259°
2026-04-29 17:34 49.20478 10.59855 20452 ft 409 kts 259°
2026-04-29 17:34 49.19761 10.55628 20970 ft 413 kts 259°
2026-04-29 17:34 49.19034 10.51360 21483 ft 416 kts 259°
2026-04-29 17:34 49.18296 10.47053 21979 ft 420 kts 259°
2026-04-29 17:35 49.17307 10.41307 22607 ft 424 kts 259°
2026-04-29 17:35 49.16049 10.34015 23401 ft 430 kts 259°
2026-04-29 17:35 49.15279 10.29582 23830 ft 433 kts 258°
2026-04-29 17:36 49.14259 10.25220 24196 ft 441 kts 248°
2026-04-29 17:36 49.12758 10.21101 24547 ft 447 kts 238°
2026-04-29 17:36 49.10846 10.17318 24851 ft 452 kts 232°
2026-04-29 17:36 49.08855 10.13566 25172 ft 456 kts 233°
2026-04-29 17:37 49.06858 10.09793 25536 ft 457 kts 233°
2026-04-29 17:37 49.04861 10.06018 25959 ft 458 kts 233°
2026-04-29 17:37 49.02860 10.02229 26327 ft 460 kts 233°
2026-04-29 17:37 49.01529 9.99710 26555 ft 461 kts 233°
2026-04-29 17:38 48.98827 9.94599 26992 ft 465 kts 233°
2026-04-29 17:38 48.97482 9.92059 27207 ft 466 kts 232°
2026-04-29 17:38 48.95438 9.88211 27529 ft 469 kts 232°
2026-04-29 17:38 48.93381 9.84353 27840 ft 471 kts 232°
2026-04-29 17:39 48.91307 9.80477 28143 ft 474 kts 232°
2026-04-29 17:39 48.89219 9.76583 28441 ft 476 kts 232°
2026-04-29 17:39 48.87127 9.72686 28808 ft 476 kts 232°
2026-04-29 17:39 48.85034 9.68784 29147 ft 477 kts 232°
2026-04-29 17:40 48.82936 9.64872 29378 ft 478 kts 232°
2026-04-29 17:40 48.80831 9.60952 29608 ft 481 kts 232°
2026-04-29 17:40 48.78733 9.57050 29845 ft 483 kts 232°
2026-04-29 17:40 48.76597 9.53093 30081 ft 486 kts 232°
2026-04-29 17:41 48.74446 9.49126 30305 ft 488 kts 232°
2026-04-29 17:41 48.72293 9.45159 30552 ft 488 kts 232°
2026-04-29 17:41 48.70136 9.41184 30858 ft 486 kts 232°
2026-04-29 17:41 48.67999 9.37244 31235 ft 483 kts 232°
2026-04-29 17:42 48.65877 9.33335 31644 ft 478 kts 232°
2026-04-29 17:42 48.63769 9.29461 32013 ft 475 kts 232°
2026-04-29 17:42 48.61678 9.25611 32361 ft 473 kts 233°
2026-04-29 17:42 48.59667 9.21696 32700 ft 470 kts 236°
2026-04-29 17:43 48.57748 9.17701 33031 ft 468 kts 237°
2026-04-29 17:43 48.55897 9.13675 33191 ft 466 kts 238°
2026-04-29 17:43 48.54072 9.09642 33202 ft 464 kts 238°
2026-04-29 17:44 48.50425 9.01692 33254 ft 464 kts 237°
2026-04-29 17:44 48.48560 8.97721 33562 ft 463 kts 237°
2026-04-29 17:44 48.46687 8.93784 33896 ft 461 kts 237°
2026-04-29 17:44 48.44815 8.89874 34232 ft 459 kts 237°
2026-04-29 17:45 48.42944 8.85978 34505 ft 458 kts 237°
2026-04-29 17:45 48.41082 8.82100 34757 ft 457 kts 237°
2026-04-29 17:45 48.39225 8.78223 34985 ft 457 kts 237°
2026-04-29 17:45 48.37368 8.74343 35148 ft 457 kts 237°
2026-04-29 17:46 48.35513 8.70460 35186 ft 457 kts 237°
2026-04-29 17:46 48.31799 8.62713 35181 ft 456 kts 237°
2026-04-29 17:47 48.28088 8.55035 35175 ft 453 kts 237°
2026-04-29 17:47 48.24384 8.47379 35180 ft 453 kts 237°
2026-04-29 17:48 48.20686 8.39737 35176 ft 453 kts 237°
2026-04-29 17:48 48.16694 8.32408 35175 ft 458 kts 226°
2026-04-29 17:49 48.11512 8.26807 35174 ft 461 kts 217°
2026-04-29 17:49 48.06128 8.21633 35193 ft 458 kts 217°
2026-04-29 17:50 48.00773 8.16487 35191 ft 457 kts 217°
2026-04-29 17:50 47.95435 8.11364 35187 ft 456 kts 217°
2026-04-29 17:51 47.90112 8.06274 35186 ft 453 kts 219°
2026-04-29 17:51 47.84851 8.01251 35189 ft 451 kts 218°
2026-04-29 17:52 47.79577 7.96221 35188 ft 449 kts 219°
2026-04-29 17:52 47.74321 7.91217 35163 ft 448 kts 219°
2026-04-29 17:53 47.69076 7.86240 35146 ft 447 kts 219°
2026-04-29 17:53 47.63836 7.81294 35141 ft 446 kts 219°
2026-04-29 17:54 47.58600 7.76364 35137 ft 445 kts 219°
2026-04-29 17:54 47.53373 7.71435 35106 ft 445 kts 219°
2026-04-29 17:55 47.48180 7.66544 35119 ft 444 kts 219°
2026-04-29 17:55 47.42955 7.61650 35121 ft 445 kts 219°
2026-04-29 17:56 47.37719 7.56769 35122 ft 445 kts 219°
2026-04-29 17:56 47.32490 7.51898 35109 ft 444 kts 218°
2026-04-29 17:57 47.27270 7.47036 35125 ft 444 kts 218°
2026-04-29 17:57 47.22051 7.42191 35116 ft 442 kts 218°
2026-04-29 17:58 47.16980 7.37142 35124 ft 435 kts 227°
2026-04-29 17:58 47.13013 7.30625 35113 ft 426 kts 237°
2026-04-29 17:59 47.09331 7.23818 35114 ft 425 kts 236°
2026-04-29 17:59 47.05642 7.17045 35122 ft 425 kts 236°
2026-04-29 18:00 47.01955 7.10287 35113 ft 424 kts 236°
2026-04-29 18:00 46.98291 7.03589 35111 ft 423 kts 236°
2026-04-29 18:01 46.94601 6.96862 35092 ft 424 kts 236°
2026-04-29 18:01 46.90787 6.90273 35090 ft 429 kts 229°
2026-04-29 18:02 46.86175 6.84639 35094 ft 433 kts 224°
2026-04-29 18:02 46.81507 6.79090 35104 ft 433 kts 224°
2026-04-29 18:03 46.76823 6.73534 35077 ft 434 kts 224°
2026-04-29 18:03 46.72141 6.67980 35073 ft 434 kts 224°
2026-04-29 18:04 46.67449 6.62425 35073 ft 435 kts 224°
2026-04-29 18:04 46.62737 6.56873 35072 ft 436 kts 224°
2026-04-29 18:05 46.58019 6.51308 35069 ft 436 kts 224°
2026-04-29 18:05 46.53326 6.45796 35065 ft 436 kts 224°
2026-04-29 18:06 46.48604 6.40265 35080 ft 436 kts 224°
2026-04-29 18:06 46.44134 6.35032 35086 ft 436 kts 224°
2026-04-29 18:07 46.40286 6.30533 35083 ft 436 kts 224°
2026-04-29 18:08 46.35564 6.25028 35078 ft 435 kts 224°
2026-04-29 18:08 46.30839 6.19541 35084 ft 435 kts 224°
2026-04-29 18:09 46.25878 6.14571 35082 ft 443 kts 211°
2026-04-29 18:09 46.19916 6.11991 35073 ft 454 kts 193°
2026-04-29 18:10 46.13664 6.10615 35073 ft 454 kts 193°
2026-04-29 18:10 46.07422 6.09223 35059 ft 454 kts 193°
2026-04-29 18:11 46.01179 6.07838 35060 ft 453 kts 193°
2026-04-29 18:11 45.94982 6.06470 35051 ft 453 kts 193°
2026-04-29 18:12 45.88755 6.05102 35056 ft 452 kts 193°
2026-04-29 18:12 45.82529 6.03730 35053 ft 452 kts 193°
2026-04-29 18:13 45.76313 6.02349 35054 ft 451 kts 193°
2026-04-29 18:13 45.70114 6.00980 35036 ft 450 kts 193°
2026-04-29 18:14 45.63924 5.99620 35027 ft 450 kts 193°
2026-04-29 18:14 45.57734 5.98265 35027 ft 449 kts 193°
2026-04-29 18:15 45.51596 5.96707 35018 ft 445 kts 201°
2026-04-29 18:15 45.46117 5.93056 35026 ft 434 kts 219°
2026-04-29 18:16 45.41678 5.87353 35014 ft 428 kts 229°
2026-04-29 18:16 45.37482 5.81334 35012 ft 429 kts 228°
2026-04-29 18:17 45.33266 5.75324 35016 ft 429 kts 228°
2026-04-29 18:17 45.29076 5.69359 35024 ft 429 kts 228°
2026-04-29 18:18 45.24838 5.63330 34045 ft 438 kts 228°
2026-04-29 18:18 45.22676 5.60246 32981 ft 442 kts 228°
2026-04-29 18:18 45.20502 5.57152 32033 ft 444 kts 227°
2026-04-29 18:18 45.18309 5.54045 31067 ft 446 kts 227°
2026-04-29 18:19 45.16109 5.50938 30377 ft 444 kts 227°
2026-04-29 18:19 45.13930 5.47874 29708 ft 439 kts 227°
2026-04-29 18:19 45.11776 5.44843 29070 ft 433 kts 227°
2026-04-29 18:19 45.09651 5.41847 28666 ft 431 kts 227°
2026-04-29 18:20 45.07528 5.38849 28298 ft 431 kts 227°
2026-04-29 18:20 45.05407 5.35861 27911 ft 429 kts 226°
2026-04-29 18:20 45.03298 5.32891 27540 ft 426 kts 226°
2026-04-29 18:20 45.01199 5.29941 27159 ft 424 kts 226°
2026-04-29 18:21 44.99112 5.27013 26770 ft 421 kts 226°
2026-04-29 18:21 44.97061 5.24142 26403 ft 419 kts 226°
2026-04-29 18:21 44.94995 5.21252 26034 ft 417 kts 226°
2026-04-29 18:21 44.92937 5.18375 25663 ft 415 kts 226°
2026-04-29 18:22 44.90891 5.15517 25292 ft 413 kts 226°
2026-04-29 18:22 44.88850 5.12667 24928 ft 411 kts 226°
2026-04-29 18:22 44.86817 5.09837 24560 ft 409 kts 226°
2026-04-29 18:22 44.84797 5.07027 24198 ft 407 kts 226°
2026-04-29 18:23 44.82778 5.04222 23847 ft 406 kts 225°
2026-04-29 18:23 44.80776 5.01442 23471 ft 404 kts 225°
2026-04-29 18:23 44.78797 4.98694 23095 ft 402 kts 225°
2026-04-29 18:23 44.76808 4.95938 22743 ft 400 kts 225°
2026-04-29 18:24 44.74827 4.93197 22393 ft 398 kts 225°
2026-04-29 18:24 44.73501 4.91425 22159 ft 397 kts 221°
2026-04-29 18:24 44.71261 4.89164 21788 ft 396 kts 211°
2026-04-29 18:24 44.68820 4.87392 21332 ft 393 kts 207°
2026-04-29 18:25 44.66382 4.85674 20909 ft 391 kts 207°
2026-04-29 18:25 44.63957 4.83961 20486 ft 389 kts 207°
2026-04-29 18:25 44.61546 4.82256 20065 ft 386 kts 207°
2026-04-29 18:25 44.59160 4.80573 19720 ft 378 kts 208°
2026-04-29 18:26 44.56837 4.78952 19223 ft 370 kts 205°
2026-04-29 18:26 44.54409 4.77761 18838 ft 370 kts 194°
2026-04-29 18:26 44.51875 4.77114 18418 ft 369 kts 190°
2026-04-29 18:26 44.49356 4.76530 17958 ft 366 kts 191°
2026-04-29 18:27 44.46856 4.75948 17541 ft 362 kts 191°
2026-04-29 18:27 44.44379 4.75364 17132 ft 360 kts 191°
2026-04-29 18:27 44.41914 4.74778 16723 ft 358 kts 191°
2026-04-29 18:27 44.39467 4.74198 16314 ft 355 kts 191°
2026-04-29 18:28 44.37039 4.73619 15912 ft 353 kts 191°
2026-04-29 18:28 44.34627 4.73044 15516 ft 350 kts 191°
2026-04-29 18:28 44.32231 4.72477 15115 ft 348 kts 191°
2026-04-29 18:28 44.29847 4.71915 14719 ft 347 kts 191°
2026-04-29 18:29 44.27477 4.71359 14342 ft 344 kts 191°
2026-04-29 18:29 44.25117 4.70806 13951 ft 342 kts 191°
2026-04-29 18:29 44.22805 4.70263 13538 ft 340 kts 191°
2026-04-29 18:29 44.20481 4.69716 13149 ft 337 kts 191°
2026-04-29 18:30 44.18175 4.69174 12765 ft 335 kts 191°
2026-04-29 18:30 44.15884 4.68635 12372 ft 333 kts 191°
2026-04-29 18:30 44.13603 4.68188 11993 ft 330 kts 184°
2026-04-29 18:30 44.11312 4.68371 11624 ft 330 kts 172°
2026-04-29 18:31 44.09111 4.69267 11258 ft 331 kts 160°
2026-04-29 18:31 44.06987 4.70485 10872 ft 329 kts 160°
2026-04-29 18:31 44.04879 4.71691 10554 ft 324 kts 160°
2026-04-29 18:31 44.02837 4.72853 10430 ft 311 kts 160°
2026-04-29 18:32 44.00876 4.73966 10307 ft 299 kts 160°
2026-04-29 18:32 43.97098 4.76098 10047 ft 290 kts 160°
2026-04-29 18:32 43.95219 4.77159 9908 ft 291 kts 160°
2026-04-29 18:33 43.93338 4.78220 9471 ft 291 kts 160°
2026-04-29 18:33 43.91467 4.79272 9093 ft 289 kts 159°
2026-04-29 18:33 43.89613 4.80310 8719 ft 286 kts 159°
2026-04-29 18:33 43.87777 4.81340 8372 ft 282 kts 159°
2026-04-29 18:34 43.85972 4.82352 8037 ft 278 kts 159°
2026-04-29 18:34 43.84786 4.83016 7765 ft 277 kts 158°
2026-04-29 18:34 43.82408 4.84350 7278 ft 273 kts 158°
2026-04-29 18:34 43.80657 4.85334 6924 ft 270 kts 157°
2026-04-29 18:35 43.78924 4.86307 6575 ft 267 kts 157°
2026-04-29 18:35 43.77229 4.87261 6228 ft 266 kts 156°
2026-04-29 18:35 43.75523 4.88219 5875 ft 264 kts 156°
2026-04-29 18:35 43.73830 4.89169 5530 ft 261 kts 156°
2026-04-29 18:36 43.72154 4.90108 5244 ft 256 kts 156°
2026-04-29 18:36 43.70541 4.91009 5157 ft 243 kts 156°
2026-04-29 18:36 43.69015 4.91860 5073 ft 229 kts 156°
2026-04-29 18:36 43.67574 4.92663 4984 ft 218 kts 156°
2026-04-29 18:37 43.66205 4.93424 4885 ft 207 kts 156°
2026-04-29 18:37 43.64904 4.94145 4799 ft 197 kts 155°
2026-04-29 18:37 43.63646 4.94847 4716 ft 192 kts 155°
2026-04-29 18:37 43.62457 4.95511 4631 ft 177 kts 155°
2026-04-29 18:38 43.61464 4.96295 4565 ft 152 kts 138°
2026-04-29 18:38 43.60717 4.97225 4422 ft 141 kts 134°
2026-04-29 18:38 43.60024 4.98162 4257 ft 138 kts 133°
2026-04-29 18:38 43.59351 4.99103 4091 ft 138 kts 133°
2026-04-29 18:39 43.58681 5.00043 3927 ft 137 kts 133°
2026-04-29 18:39 43.58011 5.00985 3764 ft 138 kts 132°
2026-04-29 18:39 43.57357 5.01943 3572 ft 137 kts 130°
2026-04-29 18:39 43.56727 5.02924 3392 ft 136 kts 130°
2026-04-29 18:40 43.56073 5.03868 3242 ft 136 kts 134°
2026-04-29 18:40 43.55392 5.04774 3075 ft 136 kts 133°
2026-04-29 18:40 43.54743 5.05702 2883 ft 136 kts 133°
2026-04-29 18:40 43.54085 5.06633 2684 ft 135 kts 133°
2026-04-29 18:41 43.52163 5.09458 2188 ft 134 kts 132°
2026-04-29 18:41 43.51519 5.10384 1992 ft 133 kts 133°
2026-04-29 18:42 43.50865 5.11287 1837 ft 133 kts 134°
2026-04-29 18:42 43.50202 5.12178 1656 ft 133 kts 133°
2026-04-29 18:42 43.49571 5.13105 1460 ft 133 kts 130°
2026-04-29 18:42 43.48950 5.14043 1247 ft 133 kts 133°
2026-04-29 18:43 43.48301 5.14944 1059 ft 132 kts 135°
2026-04-29 18:43 43.47661 5.15847 854 ft 132 kts 135°
2026-04-29 18:43 43.47029 5.16770 645 ft 131 kts 135°
2026-04-29 18:43 43.46385 5.17671 448 ft 132 kts 135°
2026-04-29 18:44 43.45741 5.18590 300 ft 134 kts 134°
2026-04-29 18:44 43.45080 5.19503 145 ft 135 kts 134°
2026-04-29 18:44 43.44430 5.20425 37 ft 132 kts 134°
2026-04-29 18:44 43.43888 5.21195 38 ft 88 kts 134°
2026-04-29 18:45 43.43580 5.21631 46 ft 44 kts 134°
2026-04-29 18:45 43.43380 5.21918 51 ft 38 kts 133°
2026-04-29 18:45 43.43333 5.22177 55 ft 29 kts 83°
2026-04-29 18:45 43.43449 5.22258 53 ft 22 kts 336°
2026-04-29 18:46 43.43592 5.22147 49 ft 25 kts 330°
2026-04-29 18:46 43.43705 5.22173 48 ft 17 kts 64°
2026-04-29 18:46 43.43735 5.22338 49 ft 19 kts 79°
2026-04-29 18:46 43.43779 5.22509 50 ft 19 kts 51°
2026-04-29 18:47 43.43881 5.22531 48 ft 11 kts 307°
2026-04-29 18:47 43.43883 5.22482 48 ft 0 kts 263°